Regional Weather Roundup
Issued by NWS Sioux Falls, SD

Home | Current Version | Previous Version | Text Only | Print | Product List | Glossary Off
Versions: 1 2 3 4 5 6 7 8 9 10 11 12 13 14 15 16 17 18 19 20 21 22 23 24 25 26 27 28 29 30 31 32 33 34 35 36 37 38 39 40 41 42 43 44 45 46 47 48 49 50

000
ASUS43 KFSD 292002
RWRFSD

WEATHER ROUNDUP FOR SE SOUTH DAKOTA/SW MINNESOTA/NW IOWA
NATIONAL WEATHER SERVICE SIOUX FALLS SD
300 PM CDT FRI AUG 29 2014

NOTE: "FAIR" INDICATES FEW OR NO CLOUDS BELOW 12,000 FEET WITH NO
SIGNIFICANT WEATHER AND OR OBSTRUCTIONS TO VISIBILITY.


SDZ038>040-050-052>070-292100-
SOUTHEAST SOUTH DAKOTA

CITY           SKY/WX    TMP DP  RH WIND       PRES   REMARKS
CHAMBERLAIN    SUNNY     81  62  52 N10       29.81F
HURON          MOSUNNY   80  68  66 NW13      29.78S
MADISON        FAIR      73  72  94 N9        29.80R
MITCHELL       PTSUNNY   78  68  71 NW7       29.78F
SIOUX FALLS    CLOUDY    75  68  78 W5        29.79R THUNDER
WINNER         FAIR      84  61  45 N13       29.84R
YANKTON        CLOUDY    75  68  78 CALM      29.77F
$$

MNZ071-072-080-081-089-090-097-098-292100-
SOUTHWEST MINNESOTA

CITY           SKY/WX    TMP DP  RH WIND       PRES   REMARKS
FAIRMONT       CLOUDY    72  66  83 SW9       29.79S
JACKSON        CLOUDY    72  68  88 SW7       29.80F
LUVERNE        CLOUDY    72  68  88 SW3       29.79S
MARSHALL       CLOUDY    72  66  83 N9        29.76S
MONTEVIDEO     PTSUNNY   75  73  94 NW3       29.76F
PIPESTONE      LGT RAIN  70  66  88 SW5       29.79F
REDWOOD FALLS  LGT RAIN  71  68  90 SW9       29.74F FOG
TRACY          CLOUDY    75  71  86 CALM      29.76F
WINDOM         CLOUDY    73  70  88 SW7       29.78F
WORTHINGTON    CLOUDY    70  70 100 W6        29.81S
$$

IAZ001>003-012>014-020>022-031-032-NEZ013-014-SDZ071-292100-
NORTHWEST IOWA

CITY           SKY/WX    TMP DP  RH WIND       PRES   REMARKS
CHEROKEE       CLOUDY    70  69  95 NE6       29.78F
DENISON        CLOUDY    75  70  83 S6        29.77F
ESTHERVILLE    CLOUDY    73  69  87 SW10      29.79F
LE MARS        CLOUDY    72  68  88 CALM      29.78F
ORANGE CITY    LGT RAIN  72  66  83 CALM      29.79F
SHELDON        RAIN      68  68 100 S6        29.79F
SIOUX CITY     CLOUDY    74  67  78 CALM      29.78F
SPENCER        RAIN      72  69  90 SW8       29.81S FOG
STORM LAKE     CLOUDY    72  72 100 W10       29.80F
$$

ABBREVIATIONS USED IN REMARKS
   TC - TEMPERATURE IN CELSIUS
  WCI - WIND CHILL INDEX
   HX - HEAT INDEX
  VSB - VISIBILITY




USA.gov is the U.S. government's official web portal to all federal, state and local government web resources and services.